Temperature
29 26 25 26 27 27 28 27 27 27 28 27 26 25 25 25 25 25 24 24 24 24 23 23 23 22 22 22 21 21 20 20 20 20 19 19 19 19 18 18 18 18 18 18
26 26 27 28 29 29 28 27 27 27 28 27 25 25 25 25 25 25 25 24 24 24 23 23 23 22 22 22 21 21 21 20 20 20 19 19 19 19 18 18 18 18 18 18
26 27 29 30 29 29 28 27 27 27 28 27 26 25 24 25 25 25 25 25 24 24 24 23 23 22 22 22 22 21 21 20 20 20 19 19 19 19 18 18 18 18 18 18
27 28 30 30 29 29 27 29 29 28 26 24 25 23 23 24 24 24 25 25 24 24 24 24 23 23 22 22 22 21 21 20 20 20 19 19 19 19 19 18 18 18 18 18
26 29 29 29 30 30 29 29 29 28 26 24 24 23 23 23 23 24 25 25 25 24 24 24 23 23 23 22 22 21 21 20 20 20 19 19 19 19 19 18 18 18 18 18
27 29 29 30 30 30 30 28 26 23 23 23 24 24 23 22 24 24 25 25 25 25 24 24 24 23 22 22 21 21 21 20 20 20 19 19 19 19 19 18 18 18 18 18
27 28 29 30 30 29 27 24 23 24 22 23 23 24 23 24 25 25 25 25 25 25 24 24 23 23 23 22 21 21 21 20 20 20 19 19 19 19 19 18 18 18 18 18
25 25 28 29 29 27 27 24 23 24 23 23 24 24 24 25 26 27 26 26 25 25 25 24 24 23 23 22 22 21 21 21 20 20 20 19 19 19 19 18 18 18 18 18
24 25 28 29 30 29 28 25 23 22 23 23 23 24 25 25 25 25 26 25 25 25 25 24 24 23 23 23 22 22 21 21 20 20 20 19 19 19 19 18 18 18 18 17
25 25 27 28 29 29 28 25 22 22 22 23 24 24 23 24 24 25 25 25 25 25 25 24 24 23 23 23 22 22 21 21 20 20 20 19 19 19 18 18 18 18 17 17
24 25 25 27 27 27 28 27 22 20 21 22 23 23 24 24 24 24 24 25 25 25 25 24 24 23 23 23 22 22 21 21 20 20 20 19 19 19 18 18 18 17 17 17
23 21 23 25 26 27 27 26 23 23 22 20 21 23 25 24 24 25 25 25 25 25 25 25 24 23 23 22 22 22 21 21 21 20 20 19 19 19 18 18 18 17 17 17
23 21 22 23 24 26 27 26 24 21 20 20 22 24 25 24 24 25 26 25 25 25 24 24 24 23 23 23 22 22 21 21 21 20 20 19 19 18 18 18 17 17 17 17
23 20 21 23 23 24 26 27 26 23 22 22 23 24 25 24 24 24 25 25 25 24 24 24 24 24 23 23 22 22 21 21 21 20 20 19 19 18 18 18 17 17 17 16
21 21 23 23 25 26 26 27 27 25 23 23 24 24 24 24 24 24 25 24 24 24 24 23 24 23 23 23 22 22 21 21 21 20 19 19 19 18 18 17 17 17 16 16
19 21 22 23 25 26 26 26 27 26 26 25 25 24 23 24 25 24 24 24 23 23 23 23 23 23 23 23 22 22 21 21 20 20 20 19 18 18 17 17 17 16 16 16
18 19 20 21 23 24 24 25 26 26 25 25 24 24 23 23 23 23 24 24 24 24 23 23 23 23 23 23 22 22 21 21 20 20 19 19 18 18 17 17 16 16 16 16
19 18 17 19 22 23 22 23 25 25 25 24 24 23 23 23 24 24 25 24 24 24 24 24 24 23 23 22 22 22 21 20 20 19 19 19 18 18 17 17 16 16 16 15
18 18 18 18 20 21 23 24 24 24 23 23 23 23 23 24 23 23 24 25 25 25 25 24 24 24 23 22 22 21 20 20 20 19 19 19 18 17 17 17 16 16 15 15
18 17 17 18 20 21 21 23 25 24 22 23 23 22 23 23 21 21 24 24 25 25 24 24 23 23 22 22 21 21 20 20 19 19 19 18 18 17 17 16 16 15 15 15
18 17 17 18 19 19 21 22 24 22 21 22 23 23 23 22 22 24 24 24 24 24 24 23 23 22 22 22 21 21 20 20 20 19 19 18 17 17 16 16 15 15 15 15
17 16 17 16 18 19 20 21 21 20 21 22 23 23 23 23 23 23 24 23 24 23 23 23 22 22 22 21 21 20 20 20 19 19 18 18 17 16 16 15 15 15 14 14
16 16 15 16 17 18 20 20 21 22 21 22 23 23 23 23 22 22 23 22 22 22 22 22 22 21 21 21 20 20 20 19 18 18 18 17 17 16 16 15 15 15 14 14
16 16 15 16 17 18 20 21 21 21 22 22 22 23 23 22 22 22 22 22 22 22 21 21 21 20 20 20 20 20 19 18 18 18 17 17 16 16 16 15 15 15 14 14
15 15 15 15 16 18 20 20 21 21 21 21 22 22 22 22 21 21 21 21 21 21 20 20 20 20 19 19 19 19 18 18 18 17 17 16 16 16 15 15 15 14 14 14
14 14 15 15 16 16 18 19 20 20 20 21 21 21 21 21 21 21 21 20 20 20 20 20 19 19 19 19 18 18 18 18 17 17 17 16 16 15 15 15 14 14 14 13
Wind_Speed
4 3 4 7 7 7 6 4 4 4 5 5 7 8 11 11 12 13 13 13 13 12 10 10 10 11 10 8 8 7 6 5 4 2 2 2 1 1 1 2 4 5 4 4
5 5 11 7 4 3 4 4 2 1 5 6 7 6 9 12 14 15 17 16 14 11 9 10 10 10 10 9 8 7 7 6 5 4 3 2 2 2 2 1 2 3 4 4
7 9 7 4 3 1 1 6 6 4 2 4 6 1 4 7 6 9 13 14 14 15 15 13 12 10 10 9 8 8 7 6 5 4 2 2 2 2 1 0 1 1 3 4
7 9 5 3 4 4 4 6 6 6 6 1 4 3 6 7 6 8 11 12 13 14 13 13 13 11 11 10 8 7 7 6 5 4 4 4 3 2 2 2 1 1 1 2
6 5 4 5 6 5 7 5 4 5 5 2 1 4 6 4 8 12 13 14 14 14 15 14 14 13 11 10 9 7 6 5 4 4 5 4 3 2 1 1 1 0 0 0
8 6 5 6 5 4 3 3 6 5 5 1 4 5 5 7 13 13 13 15 14 14 14 13 12 10 9 9 8 7 7 5 4 4 4 5 4 3 2 1 1 0 1 1
6 7 5 3 1 2 6 7 4 5 4 4 4 3 8 10 11 13 15 15 14 14 14 13 12 11 11 10 9 8 8 5 4 4 4 4 4 4 3 3 2 1 1 1
4 8 6 4 7 6 5 11 8 5 5 5 4 4 7 7 7 9 12 12 13 13 14 14 14 13 12 12 11 9 9 6 5 4 4 3 3 3 2 2 2 2 2 1
7 8 7 5 5 8 5 5 10 8 3 1 4 4 6 4 6 8 10 12 13 13 13 14 13 12 12 12 11 11 10 7 6 5 4 3 3 3 3 2 1 1 1 1
8 5 7 6 0 2 8 8 7 6 5 2 4 3 4 3 7 9 10 12 11 10 11 12 12 11 11 11 10 10 10 8 7 6 5 4 3 3 3 3 3 3 3 2
7 5 6 2 4 7 3 4 6 6 7 7 3 7 8 12 11 11 12 13 14 13 13 13 12 11 11 10 10 10 9 7 6 6 5 4 4 3 3 3 3 3 3 4
4 6 4 7 7 7 7 8 8 6 4 6 5 8 7 11 12 12 12 12 12 13 13 13 13 12 11 11 11 10 10 8 7 7 6 5 4 4 4 4 4 4 5 4
3 6 1 7 7 3 1 3 6 7 6 6 5 7 4 5 9 11 11 12 11 12 11 11 12 13 12 12 11 11 10 9 8 8 7 6 5 5 5 4 4 5 5 5
5 5 7 9 8 4 3 4 3 6 5 6 8 7 4 5 9 9 10 12 12 12 12 13 12 12 12 12 11 11 10 9 10 9 8 7 6 5 5 5 5 6 6 6
6 3 3 5 4 2 3 5 4 4 8 9 9 9 10 11 12 12 12 11 11 12 12 14 14 13 12 12 11 11 10 9 10 9 9 8 6 6 5 6 6 6 6 7
5 3 2 3 2 2 4 6 5 4 4 5 5 6 7 8 8 9 12 14 13 13 13 13 13 13 13 13 12 11 11 10 10 10 9 8 7 7 6 6 6 7 6 6
3 4 3 2 4 4 5 5 3 3 3 6 6 7 5 7 10 12 12 13 14 14 12 13 13 13 13 13 12 13 12 10 10 10 9 9 8 8 7 7 7 7 6 6
4 3 3 1 2 4 9 4 1 1 2 3 4 4 7 9 10 9 9 11 11 12 12 12 12 11 10 10 11 11 11 11 11 10 9 9 9 9 8 7 7 6 5 5
6 6 3 3 2 5 7 4 1 1 3 2 3 4 5 7 7 2 4 8 10 11 11 10 11 11 11 13 13 12 11 10 10 10 10 10 10 9 8 8 7 6 6 5
4 6 5 4 4 6 7 7 3 4 2 5 1 4 6 7 6 4 4 5 7 7 8 9 9 10 11 13 14 14 13 12 11 11 10 10 9 9 8 8 6 5 6 5
3 3 4 4 4 6 5 8 3 3 6 5 0 3 4 4 7 6 5 5 6 7 7 10 11 11 11 12 14 13 13 12 11 10 10 9 9 9 8 7 6 6 6 6
4 3 3 4 3 6 6 3 2 5 4 2 1 2 4 4 4 6 6 6 7 8 8 10 10 9 10 12 13 12 11 10 10 10 10 9 9 8 7 8 6 6 6 6
3 5 5 6 6 5 3 2 3 3 2 1 1 2 5 5 5 6 6 7 7 8 8 8 10 9 9 10 12 12 9 10 11 11 10 9 8 7 7 8 8 6 6 5
3 1 3 1 2 2 1 1 2 2 1 1 2 4 5 6 5 6 7 7 7 7 7 7 9 10 9 9 9 10 10 11 12 11 10 9 8 7 6 6 6 6 6 5
3 1 2 0 1 3 3 3 3 4 4 5 5 5 5 6 6 6 6 6 7 8 6 6 8 9 9 9 8 9 11 12 11 10 9 8 8 8 6 4 3 4 4 6
2 3 3 4 5 3 3 3 2 4 4 5 7 7 5 5 5 6 6 5 6 7 6 7 8 8 8 8 8 9 11 12 12 10 9 8 7 6 6 6 4 4 2 2
Wind_Direction
329 57 252 237 210 193 185 165 183 198 172 138 147 159 175 180 180 180 180 180 180 181 179 169 162 158 153 153 151 157 156 165 155 144 149 151 172 187 191 200 192 189 187 174
5 273 243 229 222 178 144 131 169 235 155 139 154 173 187 186 188 189 184 184 182 176 167 167 163 159 160 163 165 164 165 168 169 168 171 171 168 180 184 196 192 192 185 181
219 247 254 228 243 196 181 174 188 184 108 85 110 70 211 207 198 193 194 187 181 178 174 172 169 168 165 170 174 171 169 169 173 166 139 112 83 68 71 77 230 226 189 181
251 256 260 231 221 179 243 216 170 157 125 200 134 184 251 211 210 202 198 189 185 181 176 174 173 172 174 177 174 165 166 168 170 156 149 155 163 177 198 193 206 238 199 191
260 254 242 230 226 197 217 203 145 152 135 104 79 144 259 191 207 213 201 193 186 183 179 178 178 177 175 172 169 166 161 162 162 156 161 160 162 180 186 162 161 200 297 234
253 265 218 213 232 196 181 71 47 56 75 73 232 159 244 206 206 204 194 188 183 180 177 177 175 167 165 163 163 162 158 160 155 152 152 157 162 163 152 140 151 205 275 296
298 295 269 218 238 346 100 93 43 8 20 254 259 177 239 230 210 192 183 184 181 175 173 171 167 164 164 164 164 164 158 158 156 151 152 160 165 164 167 172 174 184 218 255
220 275 258 215 185 188 170 137 153 180 203 264 312 235 260 245 203 180 173 172 170 172 174 172 171 169 169 167 165 163 161 159 156 154 154 152 152 154 159 170 171 190 201 221
192 245 272 241 194 159 166 168 163 141 159 158 288 289 320 51 117 145 155 159 169 172 172 171 169 169 167 166 167 165 163 162 162 159 151 145 145 144 142 137 135 145 161 128
178 230 274 272 118 173 167 155 100 116 144 207 284 260 222 189 165 166 163 167 168 164 163 165 167 167 167 166 163 160 161 166 162 157 159 154 144 136 131 117 97 88 77 74
169 185 288 336 186 205 167 128 117 125 148 152 217 264 223 193 180 177 180 173 165 166 168 168 169 164 160 155 155 157 159 157 156 156 148 139 133 127 115 112 107 99 86 76
175 144 236 257 248 196 175 177 148 151 196 158 165 259 258 192 183 177 176 170 166 167 166 166 162 158 159 161 162 160 160 158 160 155 144 138 129 118 110 102 97 99 92 83
130 117 123 328 332 347 159 174 157 139 130 152 163 252 282 183 180 180 167 162 166 166 160 160 157 161 168 169 167 163 161 160 156 148 142 138 134 128 121 113 104 98 96 91
110 113 160 199 218 228 262 266 185 133 155 191 203 216 247 184 177 172 164 167 167 167 164 164 163 167 171 171 167 163 162 159 154 148 145 143 144 140 131 117 111 105 101 96
89 126 179 210 216 216 256 265 245 192 185 185 212 198 207 196 180 172 162 154 155 160 165 169 169 170 171 168 165 162 162 159 155 150 149 151 147 137 125 114 108 102 98 98
60 110 53 336 342 2 304 280 255 225 196 193 182 215 219 188 158 148 153 155 160 166 168 170 168 168 170 170 166 162 164 160 153 153 154 148 139 133 125 115 109 102 96 92
53 85 73 296 323 17 284 255 244 232 214 176 191 218 182 158 170 169 164 162 165 168 168 170 171 172 172 173 167 164 162 155 152 153 151 147 145 142 137 129 117 111 106 100
132 101 124 131 42 231 245 260 184 188 265 189 178 186 171 171 176 171 165 165 167 169 171 173 171 167 166 164 157 153 150 150 151 152 152 151 149 144 138 130 127 122 115 110
151 142 126 125 184 266 292 319 22 116 324 335 151 152 145 127 106 117 182 170 173 176 175 171 168 158 156 156 153 147 146 148 150 154 155 154 149 145 141 138 136 130 122 115
88 116 130 140 169 223 256 294 300 105 320 318 87 154 147 117 134 210 205 167 153 155 160 156 151 143 149 155 151 149 154 157 161 162 158 152 149 148 149 146 141 133 131 127
59 73 144 171 205 247 273 303 22 126 232 284 348 158 159 161 183 187 167 151 141 138 144 147 146 150 154 153 150 155 160 167 165 157 149 147 149 151 149 143 139 140 138 129
160 148 176 158 190 250 306 5 135 206 226 258 107 115 131 145 137 127 133 138 135 131 134 140 142 146 150 148 153 159 167 163 152 148 147 150 151 154 150 142 141 145 145 140
176 181 176 182 209 241 284 185 206 175 165 189 122 125 128 126 123 126 133 145 143 140 139 140 139 141 147 154 158 161 164 151 148 147 151 153 151 146 147 149 153 155 155 156
313 45 115 117 250 263 339 55 38 54 89 62 104 117 108 114 125 131 140 146 139 136 135 137 140 143 151 158 158 160 155 150 149 151 152 153 151 147 147 151 157 161 167 170
272 359 84 181 262 9 3 22 49 38 38 55 61 88 108 114 117 121 130 138 139 136 141 147 154 155 160 160 156 155 152 150 149 151 153 155 154 153 150 140 139 165 181 189
253 173 156 217 229 187 239 292 27 50 48 71 76 71 75 94 107 114 120 124 131 137 141 145 152 154 156 154 154 156 156 155 154 155 157 160 160 156 152 143 115 60 93 154
Height
1503 1509 1515 1512 1509 1511 1514 1520 1524 1519 1513 1519 1525 1528 1528 1529 1531 1532 1534 1536 1538 1540 1542 1545 1547 1548 1550 1551 1552 1553 1554 1555 1556 1556 1557 1557 1557 1558 1558 1558 1558 1558 1558 1559
1511 1513 1503 1501 1502 1505 1510 1519 1522 1518 1513 1519 1526 1528 1525 1525 1526 1528 1530 1533 1535 1538 1541 1543 1545 1547 1548 1550 1551 1552 1553 1554 1554 1555 1556 1556 1556 1556 1557 1557 1557 1557 1558 1558
1513 1505 1497 1500 1504 1508 1511 1517 1519 1521 1517 1519 1527 1535 1529 1525 1526 1528 1529 1530 1533 1535 1537 1540 1543 1545 1546 1548 1549 1551 1552 1552 1553 1554 1554 1555 1555 1555 1556 1556 1556 1556 1556 1556
1505 1497 1497 1501 1504 1505 1516 1505 1507 1514 1526 1537 1532 1552 1535 1527 1526 1526 1528 1529 1531 1533 1535 1538 1540 1542 1544 1546 1548 1549 1550 1551 1552 1552 1553 1553 1554 1554 1554 1555 1555 1555 1555 1555
1505 1496 1497 1501 1499 1499 1505 1499 1504 1511 1523 1536 1535 1548 1540 1528 1530 1525 1524 1526 1528 1530 1533 1535 1538 1540 1542 1545 1546 1548 1549 1550 1550 1551 1551 1552 1552 1553 1553 1553 1554 1554 1554 1554
1498 1492 1492 1493 1491 1493 1496 1502 1511 1522 1532 1550 1538 1544 1544 1529 1522 1518 1519 1522 1524 1528 1531 1534 1537 1539 1541 1543 1545 1546 1547 1548 1549 1549 1550 1550 1551 1551 1552 1552 1552 1552 1552 1552
1502 1494 1489 1488 1495 1495 1500 1523 1547 1550 1560 1555 1534 1538 1536 1513 1508 1510 1513 1517 1521 1524 1528 1531 1534 1537 1540 1542 1543 1544 1546 1547 1548 1548 1549 1549 1550 1550 1550 1550 1551 1551 1551 1551
1515 1514 1492 1487 1492 1501 1504 1518 1547 1560 1562 1553 1536 1537 1521 1503 1502 1506 1510 1514 1518 1521 1525 1528 1531 1535 1538 1540 1541 1543 1544 1545 1546 1547 1548 1548 1548 1549 1549 1549 1549 1549 1549 1549
1512 1510 1487 1483 1483 1490 1502 1513 1517 1538 1545 1553 1545 1529 1513 1500 1503 1507 1510 1513 1516 1519 1522 1526 1529 1533 1536 1538 1540 1542 1543 1545 1546 1547 1548 1548 1548 1548 1548 1548 1548 1548 1548 1548
1497 1505 1491 1483 1483 1485 1491 1501 1521 1537 1554 1561 1548 1537 1530 1512 1509 1507 1509 1511 1514 1517 1520 1524 1528 1532 1535 1537 1539 1541 1543 1544 1545 1546 1547 1547 1547 1547 1547 1547 1547 1547 1547 1547
1490 1503 1499 1491 1493 1496 1495 1502 1516 1532 1538 1555 1557 1543 1508 1505 1503 1505 1506 1507 1510 1514 1518 1522 1526 1530 1533 1536 1538 1540 1542 1544 1545 1546 1547 1547 1547 1547 1547 1547 1547 1547 1547 1547
1488 1502 1510 1498 1485 1482 1488 1497 1511 1529 1536 1540 1547 1536 1496 1496 1497 1500 1503 1506 1509 1512 1516 1520 1524 1528 1531 1534 1536 1538 1540 1542 1544 1545 1546 1547 1547 1547 1547 1547 1547 1547 1547 1546
1486 1503 1518 1514 1504 1491 1490 1491 1500 1512 1526 1538 1543 1529 1495 1496 1497 1498 1500 1504 1508 1511 1515 1519 1522 1525 1529 1532 1534 1536 1539 1541 1543 1544 1545 1546 1547 1547 1547 1547 1547 1547 1546 1546
1481 1500 1512 1519 1513 1499 1496 1492 1494 1507 1524 1528 1524 1515 1501 1498 1498 1499 1500 1503 1506 1509 1512 1516 1519 1523 1526 1529 1532 1534 1537 1539 1541 1543 1544 1545 1546 1546 1547 1546 1546 1546 1546 1546
1482 1498 1497 1496 1491 1489 1491 1491 1490 1498 1505 1513 1509 1506 1499 1494 1494 1495 1498 1502 1505 1508 1511 1514 1517 1520 1523 1527 1530 1533 1535 1538 1540 1541 1543 1544 1545 1546 1546 1546 1546 1546 1546 1546
1487 1496 1496 1496 1489 1488 1491 1488 1487 1489 1492 1495 1496 1498 1488 1489 1491 1494 1497 1500 1503 1505 1509 1512 1515 1518 1521 1525 1527 1531 1533 1536 1538 1540 1542 1543 1544 1545 1546 1546 1546 1546 1546 1546
1492 1498 1506 1508 1496 1493 1501 1490 1487 1488 1486 1489 1496 1492 1486 1490 1491 1492 1494 1497 1499 1503 1506 1509 1512 1516 1519 1523 1526 1529 1532 1535 1537 1539 1541 1542 1543 1544 1545 1545 1545 1545 1546 1546
1492 1500 1510 1511 1505 1514 1499 1482 1481 1483 1483 1482 1483 1483 1483 1484 1487 1489 1491 1494 1497 1500 1503 1506 1510 1513 1517 1521 1524 1528 1530 1533 1535 1537 1539 1540 1541 1542 1543 1544 1544 1545 1545 1546
1483 1496 1508 1516 1516 1508 1491 1482 1482 1485 1488 1481 1482 1482 1483 1484 1487 1491 1492 1492 1494 1497 1500 1503 1507 1510 1515 1518 1522 1526 1528 1531 1533 1535 1537 1538 1540 1541 1542 1542 1543 1544 1545 1545
1483 1489 1505 1512 1514 1516 1497 1481 1477 1481 1493 1482 1481 1481 1482 1483 1493 1493 1491 1492 1494 1496 1499 1502 1505 1508 1511 1516 1519 1523 1525 1528 1531 1533 1535 1537 1538 1540 1541 1542 1543 1544 1544 1545
1495 1499 1505 1510 1511 1503 1487 1479 1477 1496 1497 1483 1481 1481 1482 1483 1485 1487 1488 1490 1492 1494 1497 1500 1504 1506 1508 1512 1516 1520 1523 1525 1528 1531 1533 1535 1537 1539 1540 1541 1542 1543 1544 1544
1498 1503 1506 1509 1512 1506 1483 1481 1485 1487 1482 1482 1480 1480 1481 1482 1483 1484 1486 1489 1491 1493 1496 1499 1501 1504 1507 1510 1513 1517 1521 1524 1527 1529 1531 1534 1536 1537 1539 1540 1541 1542 1543 1544
1493 1494 1496 1499 1499 1488 1483 1482 1481 1481 1481 1480 1480 1480 1481 1481 1482 1484 1486 1488 1491 1493 1495 1498 1501 1504 1506 1508 1511 1515 1519 1522 1525 1527 1529 1532 1534 1536 1537 1538 1539 1540 1542 1543
1489 1486 1490 1492 1488 1484 1482 1481 1481 1481 1480 1480 1479 1480 1480 1481 1482 1484 1485 1488 1490 1492 1495 1497 1500 1502 1505 1507 1511 1514 1517 1520 1522 1525 1527 1530 1532 1534 1535 1537 1538 1539 1540 1541
1489 1487 1489 1491 1487 1484 1483 1482 1482 1482 1481 1480 1480 1480 1481 1481 1482 1483 1484 1487 1489 1491 1494 1497 1499 1501 1504 1506 1509 1512 1515 1517 1520 1522 1525 1527 1530 1532 1533 1535 1536 1537 1538 1539
1488 1488 1490 1491 1486 1485 1485 1484 1484 1483 1481 1481 1480 1481 1482 1482 1482 1483 1485 1487 1489 1491 1493 1495 1498 1500 1502 1505 1507 1510 1512 1515 1517 1519 1522 1525 1527 1529 1530 1532 1534 1535 1536 1537